FW2418 Weather Reports


Display with metric or nautical units.
time (UTC)temp
F
wind
direction
speed
MPH
gust
MPH
rain 1hr
in
rain 24hr
in
rain mn
in
humidity
%
barometer
mb
20260904181131 95 163 3.0 7.0 0.00 0.00 0.00 61 1012.4
20260904180059 94 210 1.0 4.0 0.00 0.00 0.00 62 1012.4
20260904175027 94 171 2.0 5.0 0.00 0.00 0.00 63 1012.7
20260904174026 93 168 2.0 9.0 0.00 0.00 0.00 65 1012.7
20260904173025 95 117 2.0 9.0 0.00 0.00 0.00 60 1012.7
20260904172024 96 172 2.0 8.0 0.00 0.00 0.00 62 1013.0
20260904171024 95 167 1.0 8.0 0.00 0.00 0.00 61 1013.0
20260904170023 94 207 2.0 5.0 0.00 0.00 0.00 65 1013.4
20260904165022 93 329 1.0 6.0 0.00 0.00 0.00 67 1013.4
20260904163949 93 172 2.0 7.0 0.00 0.00 0.00 66 1013.4
20260904162917 93 205 2.0 7.0 0.00 0.00 0.00 67 1013.4
20260904161917 92 166 3.0 6.0 0.00 0.00 0.00 70 1013.4
20260904160845 92 176 3.0 6.0 0.00 0.00 0.00 70 1013.7
20260904155813 92 242 1.0 9.0 0.00 0.00 0.00 69 1013.7
20260904154812 92 177 4.0 8.0 0.00 0.00 0.00 71 1013.7
20260904153811 91 141 2.0 6.0 0.00 0.00 0.00 73 1013.7
20260904152810 92 124 3.0 6.0 0.00 0.00 0.00 72 1013.7
20260904151810 91 177 2.0 6.0 0.00 0.00 0.00 72 1013.7
20260904150809 91 188 3.0 6.0 0.00 0.00 0.00 73 1013.7
20260904145737 90 138 2.0 5.0 0.00 0.00 0.00 73 1013.7
20260904144736 90 180 1.0 6.0 0.00 0.00 0.00 76 1013.7
20260904143735 89 153 2.0 6.0 0.00 0.00 0.00 78 1013.7
20260904142734 89 178 2.0 5.0 0.00 0.00 0.00 78 1013.7
20260904141702 88 180 1.0 3.0 0.00 0.00 0.00 80 1013.4
20260904140701 87 122 0.0 4.0 0.00 0.01 0.00 82 1013.4
20260904135700 87 267 1.0 4.0 0.00 0.02 0.00 83 1013.4
20260904134659 86 159 2.0 4.0 0.00 0.02 0.00 84 1013.4
20260904133627 86 124 1.0 3.0 0.00 0.02 0.00 86 1013.4
20260904132626 85 174 1.0 2.0 0.00 0.02 0.00 87 1013.4
20260904131626 84 122 1.0 2.0 0.00 0.02 0.00 88 1013.4
20260904130625 84 115 1.0 1.0 0.00 0.02 0.00 91 1013.4
20260904125624 83 162 0.0 1.0 0.00 0.02 0.00 93 1013.4
20260904124623 81 159 1.0 1.0 0.00 0.02 0.00 95 1013.4
20260904123622 80 124 0.0 0.0 0.00 0.02 0.00 100 1013.0
20260904122550 78 124 0.0 0.0 0.00 0.02 0.00 100 1013.0
20260904121549 76 124 0.0 0.0 0.00 0.02 0.00 100 1013.0
20260904120549 75 124 0.0 0.0 0.00 0.02 0.00 100 1013.0
20260904115548 75 126 0.0 0.0 0.00 0.02 0.00 99 1012.7
20260904114516 75 125 0.0 0.0 0.00 0.02 0.00 99 1013.0
20260904113515 75 126 0.0 0.0 0.00 0.02 0.00 99 1012.7
20260904112514 75 125 0.0 0.0 0.00 0.02 0.00 99 1012.7
20260904111514 75 125 0.0 0.0 0.00 0.02 0.00 99 1012.3
20260904110442 75 124 0.0 0.0 0.00 0.02 0.00 99 1012.3
20260904105441 75 124 0.0 0.0 0.00 0.02 0.00 99 1012.3
20260904104440 75 124 0.0 0.0 0.00 0.02 0.00 99 1012.0
20260904103439 75 124 0.0 0.0 0.00 0.02 0.00 99 1012.0
20260904102438 76 124 0.0 0.0 0.00 0.02 0.00 99 1012.0
20260904101437 76 124 0.0 0.0 0.00 0.02 0.00 99 1012.0
20260904100436 76 124 0.0 0.0 0.00 0.02 0.00 99 1011.7
20260904095435 76 124 0.0 0.0 0.00 0.02 0.00 99 1011.7
20260904094435 76 124 0.0 0.0 0.00 0.02 0.00 99 1011.7
20260904093434 76 124 0.0 0.0 0.00 0.02 0.00 99 1011.7
20260904092433 76 124 0.0 0.0 0.00 0.02 0.00 99 1011.7
20260904091432 76 124 0.0 0.0 0.00 0.02 0.00 99 1011.7
20260904090431 76 124 0.0 0.0 0.00 0.02 0.00 99 1011.7
20260904085431 76 124 0.0 0.0 0.00 0.02 0.00 99 1011.7
20260904084430 76 124 0.0 0.0 0.00 0.02 0.00 99 1011.7
20260904083429 76 124 0.0 0.0 0.00 0.02 0.00 99 1011.7
20260904082429 76 124 0.0 0.0 0.00 0.02 0.00 99 1011.7
20260904081428 76 124 0.0 0.0 0.00 0.02 0.00 99 1012.0
20260904080427 76 124 0.0 0.0 0.00 0.02 0.00 99 1011.7
20260904075426 76 124 0.0 0.0 0.00 0.02 0.00 99 1011.7
20260904074425 76 124 0.0 0.0 0.00 0.02 0.00 99 1011.7
20260904073424 76 124 0.0 0.0 0.00 0.02 0.00 99 1011.7
20260904072424 76 124 0.0 0.0 0.00 0.02 0.00 99 1011.7
20260904071423 76 124 0.0 0.0 0.00 0.02 0.00 99 1011.7
20260904070422 77 124 0.0 0.0 0.00 0.02 0.00 98 1011.7
20260904065421 77 124 0.0 0.0 0.00 0.02 0.00 98 1011.7
20260904064420 77 124 0.0 0.0 0.00 0.02 0.00 98 1011.7
20260904063420 77 124 0.0 0.0 0.00 0.02 0.00 98 1011.7
20260904062419 77 124 0.0 0.0 0.00 0.02 0.00 98 1011.7
20260904061418 77 124 0.0 0.0 0.00 0.02 0.00 98 1012.0
20260904060417 77 124 0.0 0.0 0.00 0.02 0.00 98 1012.0
20260904055416 77 124 0.0 0.0 0.00 0.02 0.00 98 1012.3
20260904054416 77 124 0.0 0.0 0.00 0.02 0.00 98 1012.3
20260904053415 77 124 0.0 0.0 0.00 0.02 0.00 98 1012.3
20260904052414 77 124 0.0 0.0 0.00 0.02 0.00 98 1012.3
20260904051342 77 124 0.0 0.0 0.00 0.02 0.00 98 1012.3
20260904050341 78 124 0.0 0.0 0.00 0.02 0.00 98 1012.3
20260904045341 78 124 0.0 0.0 0.00 0.02 0.00 97 1012.7
20260904044340 78 124 0.0 0.0 0.00 0.02 0.00 97 1012.7
20260904043307 78 124 0.0 0.0 0.00 0.02 0.00 97 1012.7
20260904042307 78 124 0.0 0.0 0.00 0.02 0.00 97 1012.7
20260904041306 79 124 0.0 0.0 0.00 0.02 0.00 97 1012.3
20260904040305 79 124 0.0 0.0 0.00 0.02 0.00 96 1012.3
20260904035306 79 124 0.0 1.0 0.00 0.02 0.02 96 1012.3
20260904034232 79 124 1.0 1.0 0.00 0.02 0.02 96 1012.3
20260904033231 80 124 0.0 1.0 0.00 0.02 0.02 96 1012.7
20260904032231 80 124 0.0 2.0 0.00 0.02 0.02 96 1012.3
20260904031230 80 124 1.0 3.0 0.00 0.02 0.02 96 1012.3
20260904030229 80 225 1.0 3.0 0.00 0.02 0.02 95 1012.3
20260904025228 80 119 2.0 3.0 0.00 0.02 0.02 95 1012.3
20260904024227 80 121 1.0 3.0 0.00 0.02 0.02 95 1012.3
20260904023226 80 164 1.0 4.0 0.00 0.02 0.02 95 1012.3
20260904022225 80 130 2.0 5.0 0.00 0.02 0.02 95 1012.3
20260904021224 80 186 1.0 3.0 0.00 0.02 0.02 95 1012.3
20260904020224 80 131 1.0 3.0 0.00 0.02 0.02 95 1012.3
20260904015223 80 113 1.0 3.0 0.00 0.02 0.02 95 1012.3
20260904014222 80 101 1.0 3.0 0.00 0.02 0.02 95 1012.3
20260904013221 80 128 1.0 3.0 0.00 0.02 0.02 95 1012.3
20260904012220 81 129 0.0 1.0 0.00 0.02 0.02 94 1012.0
20260904011219 81 111 1.0 1.0 0.00 0.02 0.02 94 1012.3
20260904010218 81 117 1.0 3.0 0.00 0.02 0.02 93 1012.3
20260904005146 81 124 0.0 3.0 0.00 0.02 0.02 93 1012.3
20260904004114 81 135 1.0 3.0 0.00 0.02 0.02 93 1012.0
20260904003114 82 126 1.0 3.0 0.00 0.02 0.02 93 1012.3
20260904002113 82 129 1.0 5.0 0.00 0.02 0.02 92 1012.0
20260904001112 82 124 1.0 5.0 0.00 0.02 0.02 92 1012.0
20260904000111 82 129 2.0 4.0 0.00 0.02 0.02 91 1011.7
20260903235110 82 138 1.0 2.0 0.00 0.02 0.02 91 1011.7
20260903234109 82 125 1.0 2.0 0.00 0.02 0.02 90 1011.7
20260903233109 83 129 1.0 2.0 0.00 0.02 0.02 89 1011.7
20260903232107 83 162 0.0 2.0 0.00 0.02 0.02 89 1011.7
20260903231107 83 195 0.0 4.0 0.00 0.02 0.02 88 1011.7
20260903230034 83 192 2.0 4.0 0.00 0.02 0.02 87 1011.7
20260903225034 84 120 1.0 4.0 0.00 0.02 0.02 87 1011.3
20260903224033 84 134 1.0 4.0 0.00 0.02 0.02 87 1011.3
20260903223032 84 147 2.0 3.0 0.00 0.02 0.02 87 1011.0
20260903222031 84 99 1.0 5.0 0.00 0.02 0.02 87 1011.0
20260903221030 85 177 2.0 5.0 0.00 0.02 0.02 86 1011.0
20260903215958 85 112 2.0 4.0 0.00 0.02 0.02 85 1011.3
20260903214957 85 121 1.0 3.0 0.00 0.02 0.02 84 1011.3
20260903213721 85 190 2.0 4.0 0.00 0.02 0.02 84 1011.0
20260903212720 85 140 1.0 3.0 0.00 0.02 0.02 83 1010.6
20260903211719 86 121 1.0 3.0 0.00 0.02 0.02 83 1010.6
20260903210718 86 123 1.0 3.0 0.00 0.02 0.02 82 1010.6
20260903205646 86 117 1.0 2.0 0.00 0.02 0.02 82 1010.6
20260903204645 86 84 2.0 4.0 0.00 0.02 0.02 81 1010.6
20260903203644 87 120 2.0 4.0 0.00 0.02 0.02 81 1010.6
20260903202643 87 73 1.0 3.0 0.00 0.02 0.02 80 1011.0
20260903201643 87 129 1.0 3.0 0.00 0.02 0.02 79 1011.0
20260903200642 87 102 1.0 3.0 0.00 0.02 0.02 78 1011.0
20260903195641 87 87 1.0 5.0 0.00 0.02 0.02 80 1011.3
20260903194640 87 134 2.0 5.0 0.00 0.02 0.02 80 1011.3
20260903193608 87 65 2.0 5.0 0.00 0.02 0.02 81 1011.7
20260903192607 87 53 2.0 6.0 0.00 0.02 0.02 80 1011.7
20260903191535 87 135 2.0 7.0 0.00 0.02 0.02 81 1011.7
20260903190534 88 180 1.0 4.0 0.00 0.02 0.02 80 1011.7
20260903185534 88 140 1.0 4.0 0.00 0.02 0.02 79 1012.0
20260903184533 88 111 1.0 5.0 0.00 0.02 0.02 80 1012.0
20260903183501 87 42 2.0 5.0 0.00 0.02 0.02 81 1012.0
20260903182429 86 119 2.0 5.0 0.00 0.02 0.02 83 1012.0